Weather History for Hartford, CT

Change the Weather History Date:

Tuesday, February 5, 2013

  Actual Average Record
Temperature  
Mean Temperature 26 °F -  
Max Temperature 28 °F 34 °F 65 °F (1991)
Min Temperature 24 °F 16 °F -2 °F (1985)
Degree Days  
Heating Degree Days 39    
Moisture  
Dew Point 18 °F    
Average Humidity 71    
Maximum Humidity 93    
Minimum Humidity 44    
Precipitation  
Precipitation 0.00 in - - ()
Sea Level Pressure  
Sea Level Pressure 29.96 in    
Wind  
Wind Speed 2 mph (ENE)    
Max Wind Speed 6 mph    
Max Gust Speed -    
Visibility 7 miles    
Events Snow    
Averages and records for this station are not official NWS values.
T = Trace of Precipitation, MM = Missing Value Source: NWS Daily Summary

Daily Weather History Graph

Daily Weather History Graph

Search for Another Location

Airport:

Trip Planner

Search our weather history database for the weather conditions in past years. The results will help you decide how hot, cold, wet, or windy it might be!

Date:

Astronomy

Feb. 05, 2013 Rise Set
Actual Time 6:58 AM EST 5:11 PM EST
Civil Twilight 6:29 AM EST 5:40 PM EST
Nautical Twilight 5:56 AM EST 6:13 PM EST
Astronomical Twilight 5:23 AM EST 6:46 PM EST
Moon 2:38 AM EST (2/5) 12:24 PM EST (2/5)
Length of Visible Light 11h 11m
Length of Day
10h 13m
Waning Crescent, 27% of the Moon is Illuminated
Feb 5
Waning Crescent
Feb 10
New
Feb 17
First Quarter
Feb 25
Full
Mar 4
Last Quarter

Hourly Weather History & Observations

Time (EST) Temp. Windchill Dew Point Humidity Pressure Visibility Wind Dir Wind Speed Gust Speed Precip Events Conditions
12:53 AM 26.1 °F - 7.0 °F 44% 29.97 in 10.0 mi Calm Calm - N/A   Overcast
1:53 AM 26.1 °F - 7.0 °F 44% 29.96 in 10.0 mi Calm Calm - N/A   Overcast
2:53 AM 26.1 °F - 10.0 °F 51% 29.96 in 10.0 mi Calm Calm - N/A   Overcast
3:53 AM 24.1 °F 18.2 °F 12.0 °F 60% 29.96 in 10.0 mi North 4.6 mph - N/A   Overcast
4:53 AM 24.1 °F 19.7 °F 12.0 °F 60% 29.96 in 10.0 mi NNE 3.5 mph - N/A   Overcast
5:53 AM 24.1 °F 17.0 °F 12.0 °F 60% 29.96 in 10.0 mi NNE 5.8 mph - N/A   Overcast
6:53 AM 24.1 °F 17.0 °F 10.9 °F 57% 29.98 in 10.0 mi NNE 5.8 mph - N/A   Overcast
7:53 AM 24.1 °F 17.0 °F 10.9 °F 57% 30.00 in 10.0 mi NNE 5.8 mph - N/A   Overcast
8:53 AM 25.0 °F 19.3 °F 12.9 °F 60% 30.01 in 10.0 mi NNE 4.6 mph - N/A   Overcast
10:53 AM 26.1 °F 20.5 °F 15.1 °F 63% 30.02 in 10.0 mi East 4.6 mph - 0.00 in   Overcast
11:53 AM 27.0 °F - 16.0 °F 63% 30.00 in 10.0 mi Calm Calm - N/A   Overcast
12:53 PM 28.0 °F 22.8 °F 17.1 °F 63% 29.97 in 10.0 mi Variable 4.6 mph - N/A   Overcast
1:53 PM 28.0 °F - 17.1 °F 63% 29.97 in 10.0 mi Calm Calm - N/A   Overcast
2:53 PM 28.9 °F - 18.0 °F 64% 29.94 in 10.0 mi Calm Calm - N/A   Overcast
3:53 PM 28.0 °F 24.2 °F 17.1 °F 63% 29.94 in 10.0 mi ESE 3.5 mph - N/A   Overcast
4:40 PM 28.4 °F 24.6 °F 17.6 °F 64% 29.94 in 10.0 mi SSE 3.5 mph - N/A   Overcast
4:53 PM 28.0 °F 24.2 °F 18.0 °F 66% 29.94 in 10.0 mi SE 3.5 mph - N/A   Overcast
5:44 PM 26.6 °F 22.6 °F 21.2 °F 80% 29.94 in 4.0 mi SSE 3.5 mph - 0.00 in Snow Light Snow
5:53 PM 27.0 °F 23.0 °F 21.0 °F 78% 29.94 in 3.0 mi SE 3.5 mph - 0.00 in Snow Light Snow
6:00 PM 26.6 °F - 21.2 °F 80% 29.94 in 2.5 mi Calm Calm - 0.00 in Snow Light Snow
6:11 PM 26.6 °F - 21.2 °F 80% 29.94 in 1.5 mi Calm Calm - 0.00 in Snow Light Snow
6:53 PM 26.1 °F - 24.1 °F 92% 29.95 in 1.2 mi Calm Calm - 0.00 in Snow Light Snow
7:19 PM 26.6 °F - 24.8 °F 93% 29.95 in 2.0 mi Calm Calm - 0.00 in Snow Light Snow
7:25 PM 26.6 °F - 24.8 °F 93% 29.95 in 3.0 mi Calm Calm - 0.00 in Snow Light Snow
7:45 PM 26.6 °F - 24.8 °F 93% 29.95 in 2.5 mi Calm Calm - 0.00 in Snow Light Snow
7:53 PM 26.1 °F - 24.1 °F 92% 29.95 in 3.0 mi Calm Calm - 0.00 in Snow Light Snow
8:06 PM 26.6 °F - 23.0 °F 86% 29.95 in 4.0 mi Calm Calm - 0.00 in Snow Light Snow
8:53 PM 26.1 °F 21.9 °F 21.9 °F 84% 29.94 in 8.0 mi NE 3.5 mph - 0.00 in   Overcast
9:53 PM 27.0 °F - 23.0 °F 85% 29.94 in 4.0 mi Calm Calm - 0.00 in Snow Light Snow
10:53 PM 26.1 °F - 23.0 °F 88% 29.94 in 6.0 mi Calm Calm - 0.00 in   Overcast
11:53 PM 27.0 °F - 23.0 °F 85% 29.94 in 6.0 mi Calm Calm - 0.00 in   Overcast